Regional Weather Roundup
Issued by NWS

Home | Current Version | Previous Version | Graphics & Text | Print | Product List | Glossary On
Versions: 1 2 3 4 5 6 7 8 9 10 11 12 13 14 15 16 17 18 19 20 21 22 23 24 25 26 27 28 29 30 31 32 33 34 35 36 37 38 39 40 41 42 43 44 45 46 47 48 49 50
000
ASUS45 KBOU 030807
RWRCO

WEATHER ROUNDUP FOR COLORADO
NATIONAL WEATHER SERVICE DENVER/BOULDER CO
100 AM MST TUE MAR 03 2015

NOTE: "FAIR" INDICATES FEW OR NO CLOUDS BELOW 12000 FEET WITH NO
SIGNIFICANT WEATHER AND/OR OBSTRUCTIONS TO VISIBILITY.

COZ001>005-013-030-031-030900-
...NORTHWEST COLORADO...

CITY           SKY/WX    TMP DP  RH WIND       PRES   REMARKS
CRAIG          MOCLDY    33  26  75 SW20      29.69R WCI  21
HAYDEN         MOCLDY    30  21  69 W28G33    29.66R WCI  16
MEEKER         CLOUDY    34  23  64 SW18G26   29.72S WCI  23
MOUNT WERNER   NOT AVBL
STEAMBOAT SPGS CLOUDY    32  20  62 SW17G28   29.67R WCI  21
WALDEN         CLOUDY    27  21  80 SW24G31   29.61S WCI  12
$$

COZ006>008-011-030900-
...WEST CENTRAL VALLEYS...

CITY           SKY/WX    TMP DP  RH WIND       PRES   REMARKS
GRAND JUNCTION PTCLDY    38  24  57 NW6       29.78S
MONTROSE       PTCLDY    36  24  62 SW15G28   29.84F
EAGLE          CLOUDY    30  27  86 W12       29.75S WCI  21
RIFLE          CLOUDY    36  28  73 W8        29.76S
DELTA          PTCLDY    38  30  73 NE6       29.84F
NUCLA          PTCLDY    34  28  80 S9        29.89F WCI  26
$$

COZ017>023-064>068-030900-
...SOUTHWEST COLORADO...

CITY           SKY/WX    TMP DP  RH WIND       PRES   REMARKS
DURANGO        CLOUDY    31  31 100 SW10      29.91S WCI  22
CORTEZ         CLOUDY    34  28  79 S10       29.92F WCI  26
PAGOSA SPRINGS CLOUDY    29  28  95 SW8G16    29.89S WCI  22
TELLURIDE      MOCLDY    24  17  73 S3        29.87S
WOLF CREEK PAS CLOUDY    12  12 100 SW26G49   29.82R WCI  -8
$$

COZ009-010-012-014-032>034-037-058>063-030900-
...CENTRAL COLORADO...

CITY           SKY/WX    TMP DP  RH WIND       PRES   REMARKS
ASPEN          CLOUDY    26  22  84 CALM      29.74F
BUENA VISTA    CLOUDY    30  13  47 SW17G35   29.71S WCI  19
COPPER MTN     SNOW      18  10  73 W24G44    29.67S VSB 1/2 WCI   0
BERTHOUD PASS  NOT AVBL
COTTONWOOD PAS FLURRIES  27  12  54 W21G32    29.69S WCI  13
GUNNISON       CLOUDY    30  16  55 W20G26    29.81F WCI  18
KREMMLING      LGT SNOW  30  23  74 W23G37    29.69R WCI  17
LEADVILLE      CLOUDY    18   8  65 VRB5      29.69S WCI  11
SALIDA         MOCLDY    33  15  46 W18G33    29.82S WCI  22
SUNLIGHT         N/A     19  18  93 SW6         N/A  WCI  11
WILKERSON PASS PTCLDY    14  10  85 SW18G32   29.64F WCI  -3
$$

COZ069>075-030900-
...SAN LUIS VALLEY/SANGRE DE CRISTO MOUNTAINS...

CITY           SKY/WX    TMP DP  RH WIND       PRES   REMARKS
ALAMOSA        PTCLDY    30  20  66 SW14      29.79F WCI  19
LA VETA PASS   CLOUDY    21  19  93 MISG      29.71F
SAGUACHE       PTCLDY    30  19  64 NW10      29.76R WCI  21
$$

COZ035-036-038>040-030900-
...NORTHERN COLORADO FRONT RANGE...

CITY           SKY/WX    TMP DP  RH WIND       PRES   REMARKS
DENVER INTL AP PTCLDY    32  24  72 W6        29.57F HAZE    WCI  26
DMNS CITY PARK   N/A     28  23  82 SE3       29.58R
AURORA         PTCLDY    32  24  73 W7        29.59R WCI  25
FRONT RANGE AP NOT AVBL
ERIE MUNI ARPT PTCLDY    41  16  36 W16G28    29.58R
BOULDER MUN AP PTCLDY    45  16  31 W15G32    29.58R
CENTENNIAL     PTCLDY    41  14  33 SW17      29.58F
BROOMFIELD     PTCLDY    39  19  45 SW12G17   29.59R
FORT COLLINS   PTCLDY    27  19  74 N12       29.59R WCI  16
LONGMONT       PTCLDY    46  20  36 W15G35    29.60R
$$

COZ041-046-047-076>085-087-088-030900-
...PIKES PEAK/PALMER DIVIDE AND SOUTHERN FOOTHILLS...

CITY           SKY/WX    TMP DP  RH WIND       PRES   REMARKS
COLO. SPRINGS  PTCLDY    43  17  35 SW20G30   29.66R
A. F. ACADEMY  PTCLDY    40  15  35 SW28G33   29.65R
ELLICOTT       NOT AVBL
FALCON         PTCLDY    39  18  42 W18G39    29.66S
FORT CARSON    PTCLDY    37  28  69 SW6       29.64R
LIMON          MOCLDY    25  20  81 NW7       29.61R HAZE    WCI  17
MONUMENT HILL  PTCLDY    36  14  41 SW24G35   29.63S
TRINIDAD       CLEAR     42  24  49 W16       29.71S
$$

COZ042>045-048>051-090-091-030900-
...NORTHEAST COLORADO...

CITY           SKY/WX    TMP DP  RH WIND       PRES   REMARKS
GREELEY ARPT   PTCLDY    25  18  74 N9        29.57R WCI  15
AKRON          FOG       28  28 100 W9        29.57S VSB 1/4 WCI  19
BURLINGTON     CLOUDY    36  30  79 W17       29.60R
WRAY           CLOUDY   N/A N/A N/A N6        29.55F FOG
STERLING       CLOUDY    32  30  93 SE3       29.55F FOG
HOLYOKE        NOT AVBL
FORT MORGAN    CLOUDY    28  26  96 S3        29.58R FOG
$$

COZ086-089-092>099-030900-
...SOUTHEAST COLORADO...

CITY           SKY/WX    TMP DP  RH WIND       PRES   REMARKS
PUEBLO         MOCLDY    31  28  89 W15       29.62F WCI  20
LA JUNTA       CLEAR     42  31  64 W14       29.63F
LAMAR          PTCLDY    36  32  85 W14       29.62R
SPRINGFIELD      N/A     43  36  76 SW16G24   29.68R
$$


USA.gov is the U.S. government's official web portal to all federal, state and local government web resources and services.